Time,TemperatureF,DewpointF,PressureIn,WindDirection,WindDirectionDegrees,WindSpeedMPH,WindSpeedGustMPH,Humidity,HourlyPrecipIn,Conditions,Clouds,dailyrainin,SoftwareType,DateUTC
2013-04-13 00:00:00,39.1,36.4,29.76,East,90,0.0,0.0,90,0.00,,,0.39,Wunderground v.1.15,2013-04-13 04:00:00,
2013-04-13 00:01:00,39.1,36.4,29.76,East,90,0.0,0.0,90,0.04,,,0.40,Wunderground v.1.15,2013-04-13 04:01:00,
2013-04-13 00:07:00,38.9,36.2,29.75,East,90,0.0,0.0,90,0.04,,,0.40,Wunderground v.1.15,2013-04-13 04:07:00,
2013-04-13 00:15:00,38.9,36.8,29.75,East,90,0.0,0.0,92,0.04,,,0.40,Wunderground v.1.15,2013-04-13 04:15:00,
2013-04-13 00:16:00,38.9,36.8,29.75,East,90,0.0,0.0,92,0.04,,,0.40,Wunderground v.1.15,2013-04-13 04:16:00,
2013-04-13 00:21:00,38.8,36.9,29.75,ENE,73,0.0,0.0,93,0.00,,,0.40,Wunderground v.1.15,2013-04-13 04:21:00,
2013-04-13 00:26:00,38.6,36.8,29.75,ENE,75,0.0,0.0,93,0.00,,,0.41,Wunderground v.1.15,2013-04-13 04:26:00,
2013-04-13 00:32:00,38.6,36.8,29.75,ENE,75,0.0,0.0,93,0.00,,,0.41,Wunderground v.1.15,2013-04-13 04:32:00,
2013-04-13 00:38:00,38.5,36.7,29.76,ENE,73,0.0,0.0,93,0.00,,,0.41,Wunderground v.1.15,2013-04-13 04:38:00,
2013-04-13 00:45:00,38.5,36.7,29.76,ENE,73,0.0,0.0,93,0.00,,,0.41,Wunderground v.1.15,2013-04-13 04:45:00,
2013-04-13 00:50:00,38.3,36.7,29.74,ENE,73,0.0,0.0,94,0.00,,,0.41,Wunderground v.1.15,2013-04-13 04:50:00,
2013-04-13 00:57:00,38.3,36.7,29.74,ENE,73,0.0,0.0,94,0.00,,,0.41,Wunderground v.1.15,2013-04-13 04:57:00,
2013-04-13 01:02:00,38.3,36.7,29.74,ENE,73,0.0,0.0,94,0.00,,,0.41,Wunderground v.1.15,2013-04-13 05:02:00,
2013-04-13 01:07:00,38.3,36.7,29.74,ENE,73,0.0,0.0,94,0.00,,,0.41,Wunderground v.1.15,2013-04-13 05:07:00,
2013-04-13 01:15:00,38.2,36.6,29.74,ENE,73,0.0,0.0,94,0.00,,,0.41,Wunderground v.1.15,2013-04-13 05:15:00,
2013-04-13 01:21:00,38.2,36.6,29.76,ENE,73,0.0,0.0,94,0.00,,,0.41,Wunderground v.1.15,2013-04-13 05:21:00,
2013-04-13 01:26:00,38.2,36.9,29.76,ENE,73,0.0,0.0,95,0.00,,,0.41,Wunderground v.1.15,2013-04-13 05:26:00,
2013-04-13 01:32:00,38.2,36.9,29.76,ENE,73,0.0,0.0,95,0.00,,,0.41,Wunderground v.1.15,2013-04-13 05:32:00,
2013-04-13 01:37:00,38.2,36.9,29.75,ENE,73,0.0,0.0,95,0.00,,,0.41,Wunderground v.1.15,2013-04-13 05:37:00,
2013-04-13 01:42:00,38.2,36.9,29.75,ENE,72,0.0,0.0,95,0.00,,,0.41,Wunderground v.1.15,2013-04-13 05:42:00,
2013-04-13 01:48:00,38.2,36.9,29.75,North,0,0.0,0.0,95,0.00,,,0.41,Wunderground v.1.15,2013-04-13 05:48:00,
2013-04-13 01:55:00,38.2,36.9,29.76,North,0,0.0,0.0,95,0.00,,,0.41,Wunderground v.1.15,2013-04-13 05:55:00,
2013-04-13 02:01:00,38.2,37.2,29.76,North,0,0.0,0.0,96,0.00,,,0.41,Wunderground v.1.15,2013-04-13 06:01:00,
2013-04-13 02:06:00,38.2,37.2,29.76,North,0,0.0,0.0,96,0.00,,,0.41,Wunderground v.1.15,2013-04-13 06:06:00,
2013-04-13 02:11:00,38.2,37.2,29.76,North,0,0.0,0.0,96,0.00,,,0.41,Wunderground v.1.15,2013-04-13 06:11:00,
2013-04-13 02:16:00,38.3,37.3,29.76,North,0,0.0,0.0,96,0.00,,,0.41,Wunderground v.1.15,2013-04-13 06:16:00,
2013-04-13 02:21:00,38.3,37.3,29.75,North,0,0.0,1.0,96,0.00,,,0.41,Wunderground v.1.15,2013-04-13 06:21:00,
2013-04-13 02:27:00,38.3,37.3,29.75,North,0,0.0,1.0,96,0.00,,,0.41,Wunderground v.1.15,2013-04-13 06:27:00,
2013-04-13 02:32:00,38.3,37.3,29.75,North,0,0.0,0.0,96,0.00,,,0.41,Wunderground v.1.15,2013-04-13 06:32:00,
2013-04-13 02:37:00,38.3,37.3,29.75,North,0,0.0,0.0,96,0.00,,,0.41,Wunderground v.1.15,2013-04-13 06:37:00,
2013-04-13 02:42:00,38.3,37.3,29.75,NE,52,0.0,0.0,96,0.00,,,0.41,Wunderground v.1.15,2013-04-13 06:42:00,
2013-04-13 02:48:00,38.3,37.3,29.75,North,349,0.0,0.0,96,0.00,,,0.41,Wunderground v.1.15,2013-04-13 06:48:00,
2013-04-13 02:53:00,38.2,37.2,29.76,North,0,0.0,0.0,96,0.00,,,0.41,Wunderground v.1.15,2013-04-13 06:53:00,
2013-04-13 02:58:00,38.2,37.2,29.76,North,6,0.0,0.0,96,0.00,,,0.41,Wunderground v.1.15,2013-04-13 06:58:00,
2013-04-13 03:03:00,38.0,37.0,29.76,ENE,71,0.0,0.0,96,0.00,,,0.41,Wunderground v.1.15,2013-04-13 07:03:00,
2013-04-13 03:08:00,38.0,37.0,29.77,ENE,69,0.0,0.0,96,0.00,,,0.41,Wunderground v.1.15,2013-04-13 07:08:00,
2013-04-13 03:15:00,37.9,36.9,29.77,ENE,69,0.0,0.0,96,0.00,,,0.41,Wunderground v.1.15,2013-04-13 07:15:00,
2013-04-13 03:20:00,37.9,36.9,29.77,ENE,69,0.0,0.0,96,0.00,,,0.41,Wunderground v.1.15,2013-04-13 07:20:00,
2013-04-13 03:25:00,37.9,36.9,29.77,North,356,0.0,1.0,96,0.00,,,0.41,Wunderground v.1.15,2013-04-13 07:25:00,
2013-04-13 03:30:00,37.8,36.8,29.77,North,356,0.0,0.0,96,0.00,,,0.41,Wunderground v.1.15,2013-04-13 07:30:00,
2013-04-13 03:35:00,37.9,36.9,29.78,North,356,0.0,0.0,96,0.00,,,0.41,Wunderground v.1.15,2013-04-13 07:35:00,
2013-04-13 03:40:00,37.9,36.9,29.78,North,354,0.0,0.0,96,0.00,,,0.41,Wunderground v.1.15,2013-04-13 07:40:00,
2013-04-13 03:46:00,37.8,36.8,29.78,North,357,0.0,0.0,96,0.00,,,0.41,Wunderground v.1.15,2013-04-13 07:46:00,
2013-04-13 03:51:00,37.8,36.8,29.77,North,357,0.0,0.0,96,0.00,,,0.41,Wunderground v.1.15,2013-04-13 07:51:00,
2013-04-13 03:57:00,37.8,36.8,29.77,NNE,17,0.0,0.0,96,0.00,,,0.41,Wunderground v.1.15,2013-04-13 07:57:00,
2013-04-13 04:02:00,37.8,36.5,29.77,NNE,17,0.0,0.0,95,0.00,,,0.41,Wunderground v.1.15,2013-04-13 08:02:00,
2013-04-13 04:07:00,37.6,36.3,29.78,NNE,17,0.0,0.0,95,0.00,,,0.41,Wunderground v.1.15,2013-04-13 08:07:00,
2013-04-13 04:12:00,37.6,36.3,29.78,NNE,17,0.0,0.0,95,0.00,,,0.41,Wunderground v.1.15,2013-04-13 08:12:00,
2013-04-13 04:17:00,37.6,36.3,29.78,NNE,17,0.0,0.0,95,0.00,,,0.41,Wunderground v.1.15,2013-04-13 08:17:00,
2013-04-13 04:23:00,37.6,36.3,29.78,NNE,17,0.0,0.0,95,0.00,,,0.41,Wunderground v.1.15,2013-04-13 08:23:00,
2013-04-13 04:28:00,37.6,36.3,29.78,NNE,17,0.0,0.0,95,0.00,,,0.41,Wunderground v.1.15,2013-04-13 08:28:00,
2013-04-13 04:35:00,37.6,36.3,29.78,NNE,17,0.0,0.0,95,0.00,,,0.41,Wunderground v.1.15,2013-04-13 08:35:00,
2013-04-13 04:40:00,37.6,36.3,29.78,NNE,17,0.0,0.0,95,0.00,,,0.00,Wunderground v.1.15,2013-04-13 08:40:00,
2013-04-13 04:46:00,37.5,36.2,29.78,NNE,17,0.0,0.0,95,0.00,,,0.00,Wunderground v.1.15,2013-04-13 08:46:00,
2013-04-13 04:51:00,37.3,36.3,29.77,NNE,17,0.0,0.0,96,0.00,,,0.00,Wunderground v.1.15,2013-04-13 08:51:00,
2013-04-13 04:56:00,37.3,36.3,29.77,NNE,17,0.0,0.0,96,0.00,,,0.00,Wunderground v.1.15,2013-04-13 08:56:00,
2013-04-13 05:02:00,37.2,36.2,29.77,NNE,17,0.0,0.0,96,0.00,,,0.00,Wunderground v.1.15,2013-04-13 09:02:00,
2013-04-13 05:07:00,37.2,36.2,29.78,NNE,17,0.0,0.0,96,0.00,,,0.00,Wunderground v.1.15,2013-04-13 09:07:00,
2013-04-13 05:12:00,37.2,36.2,29.78,NNE,17,0.0,0.0,96,0.00,,,0.00,Wunderground v.1.15,2013-04-13 09:12:00,
2013-04-13 05:17:00,37.2,36.2,29.78,NNE,17,0.0,0.0,96,0.00,,,0.00,Wunderground v.1.15,2013-04-13 09:17:00,
2013-04-13 05:23:00,37.2,36.2,29.77,NNE,17,0.0,0.0,96,0.00,,,0.00,Wunderground v.1.15,2013-04-13 09:23:00,
2013-04-13 05:28:00,37.2,36.2,29.77,NNE,17,0.0,0.0,96,0.00,,,0.00,Wunderground v.1.15,2013-04-13 09:28:00,
2013-04-13 05:35:00,37.2,36.2,29.79,NNE,17,0.0,0.0,96,0.00,,,0.00,Wunderground v.1.15,2013-04-13 09:35:00,
2013-04-13 05:40:00,37.2,36.2,29.79,NNE,17,0.0,0.0,96,0.00,,,0.00,Wunderground v.1.15,2013-04-13 09:40:00,
2013-04-13 05:46:00,37.2,36.2,29.79,NNE,17,0.0,0.0,96,0.00,,,0.00,Wunderground v.1.15,2013-04-13 09:46:00,
2013-04-13 05:51:00,37.2,36.2,29.79,NNE,17,0.0,0.0,96,0.00,,,0.00,Wunderground v.1.15,2013-04-13 09:51:00,
2013-04-13 05:56:00,37.2,36.4,29.79,NNE,17,0.0,0.0,97,0.00,,,0.00,Wunderground v.1.15,2013-04-13 09:56:00,
2013-04-13 06:02:00,37.2,36.4,29.79,NNE,17,0.0,0.0,97,0.00,,,0.00,Wunderground v.1.15,2013-04-13 10:02:00,
2013-04-13 06:07:00,37.2,36.4,29.79,NNE,17,0.0,0.0,97,0.00,,,0.00,Wunderground v.1.15,2013-04-13 10:07:00,
2013-04-13 06:12:00,37.2,36.4,29.79,NNE,17,0.0,0.0,97,0.00,,,0.00,Wunderground v.1.15,2013-04-13 10:12:00,
2013-04-13 06:17:00,37.2,36.4,29.79,NNE,17,0.0,0.0,97,0.00,,,0.00,Wunderground v.1.15,2013-04-13 10:17:00,
2013-04-13 06:22:00,37.0,36.2,29.79,NNE,17,0.0,0.0,97,0.00,,,0.00,Wunderground v.1.15,2013-04-13 10:22:00,
2013-04-13 06:27:00,37.0,36.2,29.79,NNE,17,0.0,0.0,97,0.00,,,0.00,Wunderground v.1.15,2013-04-13 10:27:00,
2013-04-13 06:32:00,37.0,36.2,29.79,NNE,17,0.0,0.0,97,0.00,,,0.00,Wunderground v.1.15,2013-04-13 10:32:00,
2013-04-13 06:37:00,37.0,36.2,29.80,NNE,17,0.0,0.0,97,0.00,,,0.00,Wunderground v.1.15,2013-04-13 10:37:00,
2013-04-13 06:42:00,37.0,36.2,29.80,NNE,17,0.0,0.0,97,0.00,,,0.00,Wunderground v.1.15,2013-04-13 10:42:00,
2013-04-13 06:47:00,37.0,36.2,29.80,NNE,17,0.0,0.0,97,0.00,,,0.00,Wunderground v.1.15,2013-04-13 10:47:00,
2013-04-13 06:52:00,37.2,36.4,29.80,NNE,17,0.0,0.0,97,0.00,,,0.00,Wunderground v.1.15,2013-04-13 10:52:00,
2013-04-13 06:57:00,37.2,36.4,29.80,NNE,17,0.0,0.0,97,0.00,,,0.00,Wunderground v.1.15,2013-04-13 10:57:00,
2013-04-13 07:03:00,37.2,36.4,29.80,NNE,17,0.0,0.0,97,0.00,,,0.00,Wunderground v.1.15,2013-04-13 11:03:00,
2013-04-13 07:08:00,37.2,36.4,29.80,NNE,17,0.0,0.0,97,0.00,,,0.00,Wunderground v.1.15,2013-04-13 11:08:00,
2013-04-13 07:13:00,37.3,36.5,29.80,NNE,17,0.0,0.0,97,0.00,,,0.00,Wunderground v.1.15,2013-04-13 11:13:00,
2013-04-13 07:19:00,37.3,36.5,29.80,NNE,17,0.0,0.0,97,0.00,,,0.00,Wunderground v.1.15,2013-04-13 11:19:00,
2013-04-13 07:26:00,37.3,36.5,29.81,NNE,17,0.0,0.0,97,0.00,,,0.00,Wunderground v.1.15,2013-04-13 11:26:00,
2013-04-13 07:32:00,37.3,36.5,29.81,NNE,17,0.0,0.0,97,0.00,,,0.00,Wunderground v.1.15,2013-04-13 11:32:00,
2013-04-13 07:37:00,37.5,36.7,29.81,NNE,17,0.0,0.0,97,0.00,,,0.00,Wunderground v.1.15,2013-04-13 11:37:00,
2013-04-13 07:42:00,37.6,36.8,29.81,NNE,17,0.0,0.0,97,0.00,,,0.00,Wunderground v.1.15,2013-04-13 11:42:00,
2013-04-13 07:47:00,37.6,36.8,29.81,NNE,17,0.0,0.0,97,0.00,,,0.00,Wunderground v.1.15,2013-04-13 11:47:00,
2013-04-13 07:52:00,37.8,37.0,29.82,NNE,17,0.0,0.0,97,0.00,,,0.00,Wunderground v.1.15,2013-04-13 11:52:00,
2013-04-13 07:58:00,37.8,37.0,29.82,NNE,17,0.0,0.0,97,0.00,,,0.00,Wunderground v.1.15,2013-04-13 11:58:00,
2013-04-13 08:03:00,37.9,37.1,29.82,NNE,17,0.0,0.0,97,0.00,,,0.00,Wunderground v.1.15,2013-04-13 12:03:00,
2013-04-13 08:08:00,38.0,37.2,29.82,NNE,17,0.0,0.0,97,0.00,,,0.00,Wunderground v.1.15,2013-04-13 12:08:00,
2013-04-13 08:13:00,38.2,37.4,29.82,NNE,17,0.0,0.0,97,0.00,,,0.00,Wunderground v.1.15,2013-04-13 12:13:00,
2013-04-13 08:19:00,38.3,37.3,29.82,NNE,17,0.0,0.0,96,0.00,,,0.00,Wunderground v.1.15,2013-04-13 12:19:00,
2013-04-13 08:25:00,38.3,37.3,29.81,NNE,17,0.0,0.0,96,0.00,,,0.00,Wunderground v.1.15,2013-04-13 12:25:00,
2013-04-13 08:31:00,38.5,37.5,29.81,NNE,17,0.0,0.0,96,0.00,,,0.00,Wunderground v.1.15,2013-04-13 12:31:00,
2013-04-13 08:37:00,38.9,37.6,29.82,NNE,17,0.0,0.0,95,0.00,,,0.00,Wunderground v.1.15,2013-04-13 12:37:00,
2013-04-13 08:43:00,39.1,37.8,29.82,NNE,17,0.0,0.0,95,0.00,,,0.00,Wunderground v.1.15,2013-04-13 12:43:00,
2013-04-13 08:49:00,39.2,37.6,29.82,NNE,17,0.0,0.0,94,0.00,,,0.00,Wunderground v.1.15,2013-04-13 12:49:00,
2013-04-13 08:55:00,39.3,37.4,29.82,NNE,17,0.0,0.0,93,0.00,,,0.00,Wunderground v.1.15,2013-04-13 12:55:00,
2013-04-13 09:00:00,39.5,37.1,29.82,NNE,17,0.0,0.0,91,0.00,,,0.00,Wunderground v.1.15,2013-04-13 13:00:00,
2013-04-13 09:06:00,39.6,37.5,29.82,NNE,17,0.0,0.0,92,0.00,,,0.00,Wunderground v.1.15,2013-04-13 13:06:00,
2013-04-13 09:12:00,39.9,37.5,29.82,NNE,17,0.0,0.0,91,0.00,,,0.00,Wunderground v.1.15,2013-04-13 13:12:00,
2013-04-13 09:18:00,40.2,37.8,29.82,NNE,17,0.0,0.0,91,0.00,,,0.00,Wunderground v.1.15,2013-04-13 13:18:00,
2013-04-13 09:23:00,40.3,37.6,29.82,NNE,17,0.0,0.0,90,0.00,,,0.00,Wunderground v.1.15,2013-04-13 13:23:00,
2013-04-13 09:29:00,40.5,37.8,29.82,NNE,17,0.0,0.0,90,0.00,,,0.00,Wunderground v.1.15,2013-04-13 13:29:00,
2013-04-13 09:34:00,40.6,37.9,29.83,NNE,17,0.0,0.0,90,0.00,,,0.00,Wunderground v.1.15,2013-04-13 13:34:00,
2013-04-13 09:39:00,40.8,38.1,29.83,South,191,0.0,0.0,90,0.00,,,0.00,Wunderground v.1.15,2013-04-13 13:39:00,
2013-04-13 09:47:00,41.1,38.1,29.83,SSW,203,0.0,0.0,89,0.00,,,0.00,Wunderground v.1.15,2013-04-13 13:47:00,
2013-04-13 09:52:00,41.2,37.9,29.83,SSW,203,0.0,1.0,88,0.00,,,0.00,Wunderground v.1.15,2013-04-13 13:52:00,
2013-04-13 09:57:00,41.5,38.5,29.83,WSW,240,0.0,1.0,89,0.00,,,0.00,Wunderground v.1.15,2013-04-13 13:57:00,
2013-04-13 10:02:00,41.8,38.8,29.83,WSW,240,0.0,2.0,89,0.00,,,0.00,Wunderground v.1.15,2013-04-13 14:02:00,
2013-04-13 10:08:00,41.9,38.6,29.83,WSW,240,0.0,2.0,88,0.00,,,0.00,Wunderground v.1.15,2013-04-13 14:08:00,
2013-04-13 10:13:00,42.2,38.9,29.83,WSW,240,0.0,0.0,88,0.00,,,0.00,Wunderground v.1.15,2013-04-13 14:13:00,
2013-04-13 10:18:00,42.3,39.0,29.83,WSW,240,0.0,0.0,88,0.00,,,0.00,Wunderground v.1.15,2013-04-13 14:18:00,
2013-04-13 10:23:00,42.6,39.3,29.84,WSW,240,0.0,0.0,88,0.00,,,0.00,Wunderground v.1.15,2013-04-13 14:23:00,
2013-04-13 10:28:00,42.8,39.2,29.84,SSW,209,0.0,1.0,87,0.00,,,0.00,Wunderground v.1.15,2013-04-13 14:28:00,
2013-04-13 10:36:00,43.2,39.6,29.84,SW,223,0.0,1.0,87,0.00,,,0.00,Wunderground v.1.15,2013-04-13 14:36:00,
2013-04-13 10:41:00,43.3,39.4,29.84,SW,223,1.0,2.0,86,0.00,,,0.00,Wunderground v.1.15,2013-04-13 14:41:00,
2013-04-13 10:48:00,43.6,39.7,29.84,SW,223,0.0,2.0,86,0.00,,,0.00,Wunderground v.1.15,2013-04-13 14:48:00,
2013-04-13 10:53:00,44.1,39.6,29.84,WSW,250,0.0,0.0,84,0.00,,,0.00,Wunderground v.1.15,2013-04-13 14:53:00,
2013-04-13 10:58:00,44.8,40.9,29.84,WNW,296,0.0,0.0,86,0.00,,,0.00,Wunderground v.1.15,2013-04-13 14:58:00,
2013-04-13 11:03:00,45.2,40.3,29.84,WSW,257,2.0,2.0,83,0.00,,,0.00,Wunderground v.1.15,2013-04-13 15:03:00,
2013-04-13 11:08:00,45.7,39.2,29.83,SSW,206,0.0,4.0,78,0.00,,,0.00,Wunderground v.1.15,2013-04-13 15:08:00,
2013-04-13 11:13:00,45.8,39.3,29.83,SW,217,3.0,3.0,78,0.00,,,0.00,Wunderground v.1.15,2013-04-13 15:13:00,
2013-04-13 11:18:00,46.1,39.3,29.83,SW,220,0.0,3.0,77,0.00,,,0.00,Wunderground v.1.15,2013-04-13 15:18:00,
2013-04-13 11:26:00,46.7,39.5,29.83,West,281,0.0,0.0,76,0.00,,,0.00,Wunderground v.1.15,2013-04-13 15:26:00,
2013-04-13 11:33:00,47.3,39.1,29.83,SSW,206,0.0,2.0,73,0.00,,,0.00,Wunderground v.1.15,2013-04-13 15:33:00,
2013-04-13 11:38:00,47.6,39.7,29.83,SSW,210,0.0,3.0,74,0.00,,,0.00,Wunderground v.1.15,2013-04-13 15:38:00,
2013-04-13 11:43:00,47.7,39.1,29.83,South,171,0.0,1.0,72,0.00,,,0.00,Wunderground v.1.15,2013-04-13 15:43:00,
2013-04-13 11:48:00,48.0,37.6,29.83,SW,220,2.0,3.0,67,0.00,,,0.00,Wunderground v.1.15,2013-04-13 15:48:00,
2013-04-13 11:55:00,48.6,38.1,29.83,South,172,1.0,1.0,67,0.00,,,0.00,Wunderground v.1.15,2013-04-13 15:55:00,
2013-04-13 12:00:00,48.8,36.8,29.83,West,260,2.0,6.0,63,0.00,,,0.00,Wunderground v.1.15,2013-04-13 16:00:00,
2013-04-13 12:06:00,49.1,36.2,29.83,West,281,3.0,7.0,61,0.00,,,0.00,Wunderground v.1.15,2013-04-13 16:06:00,
2013-04-13 12:11:00,49.1,34.9,29.83,WNW,302,1.0,4.0,58,0.00,,,0.00,Wunderground v.1.15,2013-04-13 16:11:00,
2013-04-13 12:16:00,49.2,35.5,29.83,NE,34,1.0,4.0,59,0.00,,,0.00,Wunderground v.1.15,2013-04-13 16:16:00,
2013-04-13 12:22:00,49.5,35.8,29.82,SE,138,1.0,5.0,59,0.00,,,0.00,Wunderground v.1.15,2013-04-13 16:22:00,
2013-04-13 12:27:00,49.6,34.1,29.82,SSE,167,1.0,5.0,55,0.00,,,0.00,Wunderground v.1.15,2013-04-13 16:27:00,
2013-04-13 12:32:00,49.9,36.1,29.82,WNW,282,4.0,4.0,59,0.00,,,0.00,Wunderground v.1.15,2013-04-13 16:32:00,
2013-04-13 12:37:00,50.1,35.9,29.82,NW,319,1.0,5.0,58,0.00,,,0.00,Wunderground v.1.15,2013-04-13 16:37:00,
2013-04-13 12:42:00,50.2,35.5,29.82,SW,234,1.0,2.0,57,0.00,,,0.00,Wunderground v.1.15,2013-04-13 16:42:00,
2013-04-13 12:47:00,50.2,36.0,29.82,SW,234,0.0,2.0,58,0.00,,,0.00,Wunderground v.1.15,2013-04-13 16:47:00,
2013-04-13 12:52:00,50.4,35.7,29.81,South,182,0.0,1.0,57,0.00,,,0.00,Wunderground v.1.15,2013-04-13 16:52:00,
2013-04-13 12:58:00,51.0,37.2,29.81,SE,145,4.0,4.0,59,0.00,,,0.00,Wunderground v.1.15,2013-04-13 16:58:00,
2013-04-13 13:03:00,51.6,35.5,29.81,SE,144,0.0,2.0,54,0.00,,,0.00,Wunderground v.1.15,2013-04-13 17:03:00,
2013-04-13 13:08:00,52.6,38.2,29.80,West,268,3.0,5.0,58,0.00,,,0.00,Wunderground v.1.15,2013-04-13 17:08:00,
2013-04-13 13:15:00,53.1,35.4,29.80,SW,226,2.0,6.0,51,0.00,,,0.00,Wunderground v.1.15,2013-04-13 17:15:00,
2013-04-13 13:20:00,53.2,37.9,29.80,NW,325,0.0,4.0,56,0.00,,,0.00,Wunderground v.1.15,2013-04-13 17:20:00,
2013-04-13 13:25:00,53.2,35.5,29.80,South,186,3.0,5.0,51,0.00,,,0.00,Wunderground v.1.15,2013-04-13 17:25:00,
2013-04-13 13:31:00,53.3,36.1,29.80,NNW,335,1.0,3.0,52,0.00,,,0.00,Wunderground v.1.15,2013-04-13 17:31:00,
2013-04-13 13:36:00,53.8,37.1,29.80,SW,222,2.0,3.0,53,0.00,,,0.00,Wunderground v.1.15,2013-04-13 17:36:00,
2013-04-13 13:42:00,53.1,35.4,29.80,West,271,2.0,3.0,51,0.00,,,0.00,Wunderground v.1.15,2013-04-13 17:42:00,
2013-04-13 13:47:00,52.9,36.7,29.80,NNW,335,0.0,3.0,54,0.00,,,0.00,Wunderground v.1.15,2013-04-13 17:47:00,
2013-04-13 13:55:00,52.9,35.2,29.80,SW,220,0.0,2.0,51,0.00,,,0.00,Wunderground v.1.15,2013-04-13 17:55:00,
2013-04-13 14:01:00,52.3,35.2,29.80,South,172,5.0,5.0,52,0.00,,,0.00,Wunderground v.1.15,2013-04-13 18:01:00,
2013-04-13 14:06:00,52.2,34.6,29.79,SSW,192,1.0,5.0,51,0.00,,,0.00,Wunderground v.1.15,2013-04-13 18:06:00,
2013-04-13 14:11:00,52.0,34.4,29.79,West,277,1.0,2.0,51,0.00,,,0.00,Wunderground v.1.15,2013-04-13 18:11:00,
2013-04-13 14:16:00,52.0,34.9,29.79,SSW,202,0.0,2.0,52,0.00,,,0.00,Wunderground v.1.15,2013-04-13 18:16:00,
2013-04-13 14:21:00,52.3,35.7,29.79,ESE,110,5.0,6.0,53,0.00,,,0.00,Wunderground v.1.15,2013-04-13 18:21:00,
2013-04-13 14:27:00,52.6,35.0,29.79,West,277,0.0,6.0,51,0.00,,,0.00,Wunderground v.1.15,2013-04-13 18:27:00,
2013-04-13 14:32:00,52.8,35.6,29.79,NW,326,0.0,5.0,52,0.00,,,0.00,Wunderground v.1.15,2013-04-13 18:32:00,
2013-04-13 14:37:00,52.9,35.2,29.78,West,280,0.0,5.0,51,0.00,,,0.00,Wunderground v.1.15,2013-04-13 18:37:00,
2013-04-13 14:42:00,53.3,36.1,29.78,NW,319,2.0,5.0,52,0.00,,,0.00,Wunderground v.1.15,2013-04-13 18:42:00,
2013-04-13 14:47:00,53.3,35.6,29.78,SW,222,0.0,5.0,51,0.00,,,0.00,Wunderground v.1.15,2013-04-13 18:47:00,
2013-04-13 14:52:00,53.2,36.0,29.78,South,186,0.0,3.0,52,0.00,,,0.00,Wunderground v.1.15,2013-04-13 18:52:00,
2013-04-13 14:58:00,53.1,35.4,29.78,SSW,195,0.0,3.0,51,0.00,,,0.00,Wunderground v.1.15,2013-04-13 18:58:00,
2013-04-13 15:03:00,53.2,36.5,29.78,SSW,206,0.0,2.0,53,0.00,,,0.00,Wunderground v.1.15,2013-04-13 19:03:00,
2013-04-13 15:08:00,53.3,35.6,29.77,SSE,147,0.0,6.0,51,0.00,,,0.00,Wunderground v.1.15,2013-04-13 19:08:00,
2013-04-13 15:13:00,53.6,37.3,29.77,South,182,3.0,4.0,54,0.00,,,0.00,Wunderground v.1.15,2013-04-13 19:13:00,
2013-04-13 15:18:00,53.6,35.9,29.77,SSW,202,3.0,6.0,51,0.00,,,0.00,Wunderground v.1.15,2013-04-13 19:18:00,
2013-04-13 15:23:00,53.6,35.9,29.77,SW,216,3.0,5.0,51,0.00,,,0.00,Wunderground v.1.15,2013-04-13 19:23:00,
2013-04-13 15:28:00,53.6,35.9,29.77,South,175,2.0,6.0,51,0.00,,,0.00,Wunderground v.1.15,2013-04-13 19:28:00,
2013-04-13 15:35:00,53.6,36.4,29.77,SSW,213,2.0,4.0,52,0.00,,,0.00,Wunderground v.1.15,2013-04-13 19:35:00,
2013-04-13 15:40:00,53.5,36.3,29.77,SSW,202,2.0,4.0,52,0.00,,,0.00,Wunderground v.1.15,2013-04-13 19:40:00,
2013-04-13 15:45:00,53.3,35.6,29.77,SSW,195,2.0,6.0,51,0.00,,,0.00,Wunderground v.1.15,2013-04-13 19:45:00,
2013-04-13 15:51:00,53.1,35.9,29.77,SSW,199,3.0,6.0,52,0.00,,,0.00,Wunderground v.1.15,2013-04-13 19:51:00,
2013-04-13 15:56:00,53.2,36.5,29.77,SSW,202,2.0,6.0,53,0.00,,,0.00,Wunderground v.1.15,2013-04-13 19:56:00,
2013-04-13 16:01:00,53.3,36.1,29.77,SSW,210,1.0,2.0,52,0.00,,,0.00,Wunderground v.1.15,2013-04-13 20:01:00,
2013-04-13 16:06:00,53.3,37.1,29.77,SSW,199,0.0,3.0,54,0.00,,,0.00,Wunderground v.1.15,2013-04-13 20:06:00,
2013-04-13 16:11:00,53.6,37.3,29.77,SSW,199,0.0,1.0,54,0.00,,,0.00,Wunderground v.1.15,2013-04-13 20:11:00,
2013-04-13 16:16:00,53.9,36.2,29.77,WNW,284,2.0,3.0,51,0.00,,,0.00,Wunderground v.1.15,2013-04-13 20:16:00,
2013-04-13 16:22:00,53.9,36.2,29.78,SSW,208,0.0,1.0,51,0.00,,,0.00,Wunderground v.1.15,2013-04-13 20:22:00,
2013-04-13 16:27:00,53.9,36.7,29.78,South,185,5.0,5.0,52,0.00,,,0.00,Wunderground v.1.15,2013-04-13 20:27:00,
2013-04-13 16:32:00,53.8,36.1,29.78,SE,128,1.0,4.0,51,0.00,,,0.00,Wunderground v.1.15,2013-04-13 20:32:00,
2013-04-13 16:37:00,53.6,36.4,29.78,SE,138,1.0,7.0,52,0.00,,,0.00,Wunderground v.1.15,2013-04-13 20:37:00,
2013-04-13 16:42:00,53.5,36.3,29.78,South,186,0.0,5.0,52,0.00,,,0.00,Wunderground v.1.15,2013-04-13 20:42:00,
2013-04-13 16:47:00,53.5,37.3,29.78,SSW,208,0.0,5.0,54,0.00,,,0.00,Wunderground v.1.15,2013-04-13 20:47:00,
2013-04-13 16:52:00,53.5,36.3,29.78,SSE,161,1.0,5.0,52,0.00,,,0.00,Wunderground v.1.15,2013-04-13 20:52:00,
2013-04-13 16:57:00,53.5,36.3,29.78,SSE,161,0.0,5.0,52,0.00,,,0.00,Wunderground v.1.15,2013-04-13 20:57:00,
2013-04-13 17:02:00,53.5,37.3,29.78,SSE,164,1.0,3.0,54,0.00,,,0.00,Wunderground v.1.15,2013-04-13 21:02:00,
2013-04-13 17:07:00,53.6,36.4,29.78,South,179,1.0,3.0,52,0.00,,,0.00,Wunderground v.1.15,2013-04-13 21:07:00,
2013-04-13 17:12:00,53.8,37.1,29.78,South,179,0.0,1.0,53,0.00,,,0.00,Wunderground v.1.15,2013-04-13 21:12:00,
2013-04-13 17:17:00,53.9,36.7,29.78,South,179,0.0,1.0,52,0.00,,,0.00,Wunderground v.1.15,2013-04-13 21:17:00,
2013-04-13 17:22:00,54.1,36.4,29.78,South,179,0.0,1.0,51,0.00,,,0.00,Wunderground v.1.15,2013-04-13 21:22:00,
2013-04-13 17:28:00,54.1,36.9,29.78,South,179,1.0,1.0,52,0.00,,,0.00,Wunderground v.1.15,2013-04-13 21:28:00,
2013-04-13 17:33:00,54.1,36.9,29.78,South,179,0.0,0.0,52,0.00,,,0.00,Wunderground v.1.15,2013-04-13 21:33:00,
2013-04-13 17:38:00,54.2,37.4,29.79,South,179,0.0,0.0,53,0.00,,,0.00,Wunderground v.1.15,2013-04-13 21:38:00,
2013-04-13 17:43:00,54.2,36.5,29.79,South,179,0.0,0.0,51,0.00,,,0.00,Wunderground v.1.15,2013-04-13 21:43:00,
2013-04-13 17:48:00,54.4,37.1,29.79,South,179,0.0,0.0,52,0.00,,,0.00,Wunderground v.1.15,2013-04-13 21:48:00,
2013-04-13 17:53:00,54.7,37.4,29.77,South,179,0.0,0.0,52,0.00,,,0.00,Wunderground v.1.15,2013-04-13 21:53:00,
2013-04-13 17:58:00,54.8,37.0,29.77,South,179,0.0,0.0,51,0.00,,,0.00,Wunderground v.1.15,2013-04-13 21:58:00,
2013-04-13 18:03:00,55.3,35.9,29.77,WNW,299,2.0,3.0,48,0.00,,,0.00,Wunderground v.1.15,2013-04-13 22:03:00,
2013-04-13 18:08:00,55.6,35.7,29.77,SSW,209,1.0,3.0,47,0.00,,,0.00,Wunderground v.1.15,2013-04-13 22:08:00,
2013-04-13 18:13:00,55.9,35.4,29.77,NW,326,1.0,3.0,46,0.00,,,0.00,Wunderground v.1.15,2013-04-13 22:13:00,
2013-04-13 18:18:00,55.9,34.8,29.77,West,280,3.0,4.0,45,0.00,,,0.00,Wunderground v.1.15,2013-04-13 22:18:00,
2013-04-13 18:23:00,55.7,35.2,29.80,NW,306,0.0,2.0,46,0.00,,,0.00,Wunderground v.1.15,2013-04-13 22:23:00,
2013-04-13 18:28:00,55.4,35.5,29.80,WNW,284,0.0,3.0,47,0.00,,,0.00,Wunderground v.1.15,2013-04-13 22:28:00,
2013-04-13 18:33:00,55.3,35.4,29.80,West,280,0.0,3.0,47,0.00,,,0.00,Wunderground v.1.15,2013-04-13 22:33:00,
2013-04-13 18:38:00,55.1,35.7,29.81,SSW,206,2.0,3.0,48,0.00,,,0.00,Wunderground v.1.15,2013-04-13 22:38:00,
2013-04-13 18:46:00,54.8,35.5,29.81,SW,232,3.0,6.0,48,0.00,,,0.00,Wunderground v.1.15,2013-04-13 22:46:00,
2013-04-13 18:51:00,54.8,34.4,29.81,WNW,282,5.0,8.0,46,0.00,,,0.00,Wunderground v.1.15,2013-04-13 22:51:00,
2013-04-13 18:56:00,54.8,35.5,29.81,North,1,0.0,8.0,48,0.00,,,0.00,Wunderground v.1.15,2013-04-13 22:56:00,
2013-04-13 19:02:00,54.8,34.9,29.81,WNW,298,1.0,5.0,47,0.00,,,0.00,Wunderground v.1.15,2013-04-13 23:02:00,
2013-04-13 19:07:00,54.7,34.8,29.81,WNW,298,1.0,5.0,47,0.00,,,0.00,Wunderground v.1.15,2013-04-13 23:07:00,
2013-04-13 19:12:00,54.5,35.2,29.81,WNW,298,0.0,1.0,48,0.00,,,0.00,Wunderground v.1.15,2013-04-13 23:12:00,
2013-04-13 19:17:00,54.4,36.1,29.81,South,184,3.0,6.0,50,0.00,,,0.00,Wunderground v.1.15,2013-04-13 23:17:00,
2013-04-13 19:22:00,54.1,35.3,29.82,SW,226,0.0,2.0,49,0.00,,,0.00,Wunderground v.1.15,2013-04-13 23:22:00,
2013-04-13 19:27:00,53.8,35.6,29.82,NW,311,0.0,2.0,50,0.00,,,0.00,Wunderground v.1.15,2013-04-13 23:27:00,
2013-04-13 19:32:00,53.6,35.9,29.82,NW,311,0.0,1.0,51,0.00,,,0.00,Wunderground v.1.15,2013-04-13 23:32:00,
2013-04-13 19:37:00,53.3,35.6,29.82,NW,311,1.0,2.0,51,0.00,,,0.00,Wunderground v.1.15,2013-04-13 23:37:00,
2013-04-13 19:42:00,53.1,35.9,29.82,SW,219,1.0,3.0,52,0.00,,,0.00,Wunderground v.1.15,2013-04-13 23:42:00,
2013-04-13 19:47:00,52.9,35.7,29.82,SW,229,0.0,3.0,52,0.00,,,0.00,Wunderground v.1.15,2013-04-13 23:47:00,
2013-04-13 19:52:00,52.5,38.6,29.83,WSW,248,2.0,2.0,59,0.00,,,0.00,Wunderground v.1.15,2013-04-13 23:52:00,
2013-04-13 19:58:00,52.0,36.8,29.83,SW,219,0.0,2.0,56,0.00,,,0.00,Wunderground v.1.15,2013-04-13 23:58:00,
2013-04-13 20:03:00,51.9,36.7,29.83,SW,220,0.0,2.0,56,0.00,,,0.00,Wunderground v.1.15,2013-04-14 00:03:00,
2013-04-13 20:08:00,51.6,36.9,29.84,SW,232,0.0,2.0,57,0.00,,,0.00,Wunderground v.1.15,2013-04-14 00:08:00,
2013-04-13 20:13:00,51.4,36.7,29.84,SW,232,2.0,2.0,57,0.00,,,0.00,Wunderground v.1.15,2013-04-14 00:13:00,
2013-04-13 20:18:00,51.3,37.0,29.84,SW,229,2.0,3.0,58,0.00,,,0.00,Wunderground v.1.15,2013-04-14 00:18:00,
2013-04-13 20:23:00,51.1,36.8,29.85,SW,220,3.0,3.0,58,0.00,,,0.00,Wunderground v.1.15,2013-04-14 00:23:00,
2013-04-13 20:28:00,51.1,36.8,29.85,WSW,251,3.0,3.0,58,0.00,,,0.00,Wunderground v.1.15,2013-04-14 00:28:00,
2013-04-13 20:33:00,51.1,36.4,29.85,SSW,195,1.0,5.0,57,0.00,,,0.00,Wunderground v.1.15,2013-04-14 00:33:00,
2013-04-13 20:38:00,51.3,36.6,29.85,WSW,240,3.0,5.0,57,0.00,,,0.00,Wunderground v.1.15,2013-04-14 00:38:00,
2013-04-13 20:43:00,51.4,35.3,29.85,SSW,203,1.0,6.0,54,0.00,,,0.00,Wunderground v.1.15,2013-04-14 00:43:00,
2013-04-13 20:48:00,51.4,35.3,29.85,SSW,210,1.0,6.0,54,0.00,,,0.00,Wunderground v.1.15,2013-04-14 00:48:00,
2013-04-13 20:55:00,51.4,35.3,29.86,West,278,0.0,2.0,54,0.00,,,0.00,Wunderground v.1.15,2013-04-14 00:55:00,
2013-04-13 21:01:00,51.3,37.0,29.86,SSW,199,0.0,1.0,58,0.00,,,0.00,Wunderground v.1.15,2013-04-14 01:01:00,
2013-04-13 21:06:00,51.1,36.4,29.87,SSW,199,0.0,1.0,57,0.00,,,0.00,Wunderground v.1.15,2013-04-14 01:06:00,
2013-04-13 21:11:00,50.8,37.8,29.87,SW,215,1.0,2.0,61,0.00,,,0.00,Wunderground v.1.15,2013-04-14 01:11:00,
2013-04-13 21:17:00,50.4,35.7,29.87,West,271,0.0,3.0,57,0.00,,,0.00,Wunderground v.1.15,2013-04-14 01:17:00,
2013-04-13 21:22:00,50.2,35.5,29.88,West,271,1.0,1.0,57,0.00,,,0.00,Wunderground v.1.15,2013-04-14 01:22:00,
2013-04-13 21:28:00,49.9,38.2,29.88,West,270,2.0,3.0,64,0.00,,,0.00,Wunderground v.1.15,2013-04-14 01:28:00,
2013-04-13 21:33:00,49.6,37.9,29.88,SW,234,1.0,6.0,64,0.00,,,0.00,Wunderground v.1.15,2013-04-14 01:33:00,
2013-04-13 21:38:00,49.8,36.0,29.88,WSW,240,0.0,6.0,59,0.00,,,0.00,Wunderground v.1.15,2013-04-14 01:38:00,
2013-04-13 21:43:00,49.9,35.3,29.88,SSE,168,3.0,3.0,57,0.00,,,0.00,Wunderground v.1.15,2013-04-14 01:43:00,
2013-04-13 21:48:00,50.1,35.0,29.88,WNW,287,0.0,3.0,56,0.00,,,0.00,Wunderground v.1.15,2013-04-14 01:48:00,
2013-04-13 21:53:00,50.1,34.5,29.89,SSW,199,1.0,3.0,55,0.00,,,0.00,Wunderground v.1.15,2013-04-14 01:53:00,
2013-04-13 21:58:00,50.1,34.5,29.89,North,0,2.0,3.0,55,0.00,,,0.00,Wunderground v.1.15,2013-04-14 01:58:00,
2013-04-13 22:03:00,50.1,34.5,29.89,NNE,16,2.0,3.0,55,0.00,,,0.00,Wunderground v.1.15,2013-04-14 02:03:00,
2013-04-13 22:08:00,49.9,34.8,29.88,NNE,16,0.0,3.0,56,0.00,,,0.00,Wunderground v.1.15,2013-04-14 02:08:00,
2013-04-13 22:13:00,49.8,34.3,29.88,NNE,16,0.0,3.0,55,0.00,,,0.00,Wunderground v.1.15,2013-04-14 02:13:00,
2013-04-13 22:18:00,49.6,36.3,29.88,NNE,16,0.0,3.0,60,0.00,,,0.00,Wunderground v.1.15,2013-04-14 02:18:00,
2013-04-13 22:23:00,49.2,35.9,29.87,NNE,16,0.0,0.0,60,0.00,,,0.00,Wunderground v.1.15,2013-04-14 02:23:00,
2013-04-13 22:28:00,48.8,37.6,29.87,NNE,16,0.0,0.0,65,0.00,,,0.00,Wunderground v.1.15,2013-04-14 02:28:00,
2013-04-13 22:35:00,48.0,37.2,29.86,NNE,16,0.0,0.0,66,0.00,,,0.00,Wunderground v.1.15,2013-04-14 02:35:00,
2013-04-13 22:41:00,47.4,35.8,29.86,NNE,16,0.0,1.0,64,0.00,,,0.00,Wunderground v.1.15,2013-04-14 02:41:00,
2013-04-13 22:46:00,46.8,36.0,29.86,NNE,16,0.0,1.0,66,0.00,,,0.00,Wunderground v.1.15,2013-04-14 02:46:00,
2013-04-13 22:51:00,46.4,35.3,29.86,NNE,16,0.0,0.0,65,0.00,,,0.00,Wunderground v.1.15,2013-04-14 02:51:00,
2013-04-13 22:56:00,46.1,36.5,29.86,NNE,16,0.0,0.0,69,0.00,,,0.00,Wunderground v.1.15,2013-04-14 02:56:00,
2013-04-13 23:01:00,45.7,37.2,29.86,NNE,16,0.0,0.0,72,0.00,,,0.00,Wunderground v.1.15,2013-04-14 03:01:00,
2013-04-13 23:07:00,45.2,37.1,29.87,NNE,16,0.0,0.0,73,0.00,,,0.00,Wunderground v.1.15,2013-04-14 03:07:00,
2013-04-13 23:12:00,44.8,36.0,29.87,NNE,16,0.0,0.0,71,0.00,,,0.00,Wunderground v.1.15,2013-04-14 03:12:00,
2013-04-13 23:17:00,44.5,36.7,29.87,NNE,16,0.0,0.0,74,0.00,,,0.00,Wunderground v.1.15,2013-04-14 03:17:00,
2013-04-13 23:22:00,44.2,37.1,29.87,NNE,16,0.0,0.0,76,0.00,,,0.00,Wunderground v.1.15,2013-04-14 03:22:00,
2013-04-13 23:28:00,43.9,36.8,29.87,NNE,16,0.0,0.0,76,0.00,,,0.00,Wunderground v.1.15,2013-04-14 03:28:00,
2013-04-13 23:33:00,43.6,36.5,29.87,NNE,16,0.0,0.0,76,0.00,,,0.00,Wunderground v.1.15,2013-04-14 03:33:00,
2013-04-13 23:38:00,43.2,37.1,29.88,NNE,16,0.0,1.0,79,0.00,,,0.00,Wunderground v.1.15,2013-04-14 03:38:00,
2013-04-13 23:43:00,42.8,36.7,29.88,NNE,16,0.0,0.0,79,0.00,,,0.00,Wunderground v.1.15,2013-04-14 03:43:00,
2013-04-13 23:48:00,42.5,36.4,29.88,NNE,16,0.0,0.0,79,0.00,,,0.00,Wunderground v.1.15,2013-04-14 03:48:00,
2013-04-13 23:55:00,42.1,36.4,29.88,NNE,16,0.0,0.0,80,0.00,,,0.00,Wunderground v.1.15,2013-04-14 03:55:00,